Flag for Poland Weather past 2 weeks in Koszalin, Poland

Now
61 °F

Overcast.


Feels Like: 61 °F
Forecast: 57 / 77 °F
Wind: 3 mph from West

Location: Koszalin

Current Time: Aug 1, 2015 at 12:26:38 PM

Latest Report: Aug 1, 2015 at 11:00 AM


Visibility: 25 mi

Pressure: 30.13 "Hg

Humidity: 52%

Dew point: 44 °F

Location of KoszalinLocation

Historic Weather in Koszalin — Graph

°F

Koszalin temperature yesterday

Maximum temperature yesterday: 60 °F (at 2:00 PM)
Minimum temperature yesterday: 53 °F (at 11:00 PM)
Average temperature yesterday: 56 °F

Past Weeks' High & Low Weather Summary

 TemperatureHumidityPressure
High77 °F (Jul 25, 5:00 PM)95% (Jul 31, 6:00 AM)30.13 "Hg (Jul 31, 6:00 AM)
Low49 °F (Aug 1, 4:00 AM)45% (Jul 17, 5:00 PM)29.50 "Hg (Jul 25, 7:00 PM)
Average61 °F75%29.82 "Hg
* Reported Jul 17 11:00 AM — Aug 1 11:00 AM, Koszalin, Weather by CustomWeather, © 2015

Note: Actual official high and low records may vary slightly from our data, if they occured in-between our weather recording intervals... More about our weather records

Advertising

Koszalin weather history for previous 24 hours

 ConditionsComfort  
Time TempWeatherWind HumidityBarometerVisibility
11:00 AM
Sat, Aug 1
61 °FOvercast.3 mph52%30.13 "Hg25 mi
10:00 AM61 °FOvercast.3 mph54%30.12 "Hg25 mi
9:00 AM59 °FOvercast.2 mph71%30.12 "Hg19 mi
8:00 AM53 °FScattered clouds.2 mph82%30.12 "Hg17 mi
7:00 AM51 °FPartly sunny.2 mph85%30.11 "Hg19 mi
4:00 AM49 °FPassing clouds.2 mph87%30.09 "Hg19 mi
3:00 AM50 °FOvercast.1 mph86%30.09 "Hg22 mi
2:00 AM49 °FPassing clouds.2 mph86%30.08 "Hg22 mi
1:00 AM50 °FPassing clouds.1 mph84%30.07 "Hg22 mi
12:00 AM51 °FPassing clouds.1 mph82%30.07 "Hg19 mi
11:00 PM
Fri, Jul 31
53 °FPassing clouds.1 mph76%30.06 "Hg25 mi
10:00 PM55 °FPassing clouds.1 mph70%30.06 "Hg25 mi
9:00 PM55 °FPassing clouds.2 mph67%30.05 "Hg22 mi
8:00 PM57 °FPassing clouds.3 mph61%30.04 "Hg28 mi
7:00 PM59 °FScattered clouds.3 mph58%30.04 "Hg22 mi
6:00 PM59 °FPartly sunny.3 mph64%30.04 "Hg19 mi
5:00 PM58 °FOvercast.5 mph68%30.04 "Hg22 mi
4:00 PM58 °FOvercast.7 mph66%30.03 "Hg19 mi
3:00 PM59 °FOvercast.7 mph64%30.02 "Hg19 mi
2:00 PM60 °FPartly sunny.7 mph70%30.01 "Hg19 mi
1:00 PM57 °FOvercast.5 mph76%30.00 "Hg17 mi
12:00 PM56 °FOvercast.5 mph86%29.98 "Hg16 mi
Weather by CustomWeather, © 2015

See weather overviewHow to use our weather pages